Regional Weather Roundup
Issued by NWS

Home | Current Version | Previous Version | Text Only | Print | Product List | Glossary Off
Versions: 1 2 3 4 5 6 7 8 9 10 11 12 13 14 15 16 17 18 19 20 21 22 23 24 25 26 27 28 29 30 31 32 33 34 35 36 37 38 39 40 41 42 43 44 45 46 47 48 49 50

000
ASUS43 KLSX 221057
RWRMO

WEATHER SUMMARY FOR MISSOURI
NATIONAL WEATHER SERVICE SPRINGFIELD MO
600 AM CDT TUE AUG 22 2017

NOTE: "FAIR" INDICATES FEW OR NO CLOUDS BELOW 12,000 FEET WITH NO
       SIGNIFICANT WEATHER AND/OR OBSTRUCTIONS TO VISIBILITY.
       CURRENT SKY AND/OR WEATHER CONDITIONS ARE NOT AVAILABLE FOR
       CHILLICOTHE AND FARMINGTON.

MOZ001>031-035>038-043-044-053-054-221200-
...NORTHERN AND WESTERN MISSOURI...

CITY           SKY/WX    TMP DP  RH WIND       PRES   REMARKS
KANSAS CTY INT CLOUDY    65  64  97 N7        30.02R
LEE`S SUMMIT   CLOUDY    67  66  97 MISG      30.00R
ST JOSEPH      CLOUDY    66  66 100 N5        30.03R
CHILLICOTHE      N/A     68  68 100 CALM      29.99R

$$
MOZ066>068-077>081-088>096-101>105-221200-
...SOUTHWEST MISSOURI...

CITY           SKY/WX    TMP DP  RH WIND       PRES   REMARKS
SPRINGFIELD    PTCLDY    77  72  84 SW21G28   29.98S
JOPLIN         MOCLDY    80  74  81 SW17G25   30.00R

$$
MOZ032>034-039>042-045>050-055>058-069>072-221200-
...CENTRAL MISSOURI...

CITY           SKY/WX    TMP DP  RH WIND       PRES   REMARKS
COLUMBIA       NOT AVBL
JEFFERSON CITY RAIN      71  71 100 CALM      29.99F VSB 3/4
ROLLA          RAIN      70  70 100 NW7       30.01R
SEDALIA        LGT RAIN  70  70 100 SE10      29.95F
WARRENSBURG    RAIN      64  64 100 NW3       29.98R
OSAGE BEACH    TSTM      70  70 100 VRB3      30.00S FOG

$$
MOZ051-052-059>065-221200-
...EAST CENTRAL MISSOURI...

CITY           SKY/WX    TMP DP  RH WIND       PRES   REMARKS
ST LOUIS INTL  CLOUDY    72  70  93 N6        29.97F THUNDER
SPIRIT OF STL  TSTM      71  71 100 N8        29.97S FOG

$$
MOZ072>076-082>087-097>100-106>115-221200-
...SOUTH CENTRAL AND SOUTHEAST MISSOURI...

CITY           SKY/WX    TMP DP  RH WIND       PRES   REMARKS
CAPE GIRARDEAU PTCLDY    75  72  90 SW5       29.98S
POPLAR BLUFF   PTCLDY    75  75 100 SW6       29.98F
WEST PLAINS    PTCLDY    75  72  90 SW9       30.01F

$$



USA.gov is the U.S. government's official web portal to all federal, state and local government web resources and services.